timestamp,gas_concentrations,,corrected_fluxes_and_quality_flags,,,,,,,,,,storage_terms,,,turbulence,,,footprint,,
ISOdate,CO2_1_1_1,H2O_1_1_1,Tau_1_1_1,QcTau_1_1_1,H_1_1_1,QcH_1_1_1,LE_1_1_1, QcLE_1_1_1,Fc_1_1_1, QcFc_1_1_1,E_1_1_1, QcE_1_1_1,Sa_1_1_1,Sw_1_1_1,Sc_1_1_1,ustar_1_1_1,MO_length_1_1_1,ZL_1_1_1,Fetchmax_1_1_1,Fetch70_1_1_1,Fetch90_1_1_1
yyyymmddHHMM,[µmol+1mol_a-1],[mmol+1mol_a-1],[kg+1m-1s-2],[#],[W+1m-2],[#],[W+1m-2],[#],[µmol+1s-1m-2],[#],[mmol+1s-1m-2],[#],[W+1m-2],[W+1m-2],[µmol+1s-1m-2],[m+1s-1],[m],[#],[m],[m],[m]
201205290030,435.07554415497987,14.958261450292698,0.23671613923831655,1,8.7745292818279363,1,-70.687950668447485,2,-2.6361011583177913,2,-1.5891784280957215,2,-9999.,-9999.,-9999.,0.45464405141914144,-899.48629341560104,-2.40137066658111693E-002,160.83378643771678,294.05545691340757,440.54865837619025
201205290100,442.48749577671055,15.247397224596448,0.27172660448124758,1,10.041449240081333,1,7.0386526880791811,1,4.8199431393550096,1,0.15820130897159232,1,-5.7841782127621002,9.9562024363401882,5.7364736270306134,0.48688839375545945,-965.49548109755062,-2.23719327774022023E-002,143.52897080584609,262.41673485047477,393.14808739591166
201205290130,449.77312667346001,15.214955441237780,0.32697282861437565,1,-1.1353723496585639,1,33.912737541635416,0,11.668781647021992,0,0.76216389032084197,0,-1.8983068303628476,-1.1174295635328440,5.6398573948973150,0.53403808271722086,11266.936639873480,1.91711382520409323E-003,128.25187137644514,234.48532471256999,351.30174524000796
201205290200,427.17528094643188,15.036288999839266,0.62141052655709772,0,-0.95136947006113148,1,-63.318798783371733,2,-14.739072896385114,2,-1.4231081916439907,2,1.0693136744499794,-6.1518104935430413,-17.487682179697803,0.73630680913856728,35236.740752019243,6.12996535406363108E-004,125.69904885815488,229.81795096815233,344.30916886401855
201205290230,417.65188258794450,14.780537603787016,0.69170744898561776,0,5.7747038026463979,2,-9.9585778902057598,2,17.104191452522343,1,-0.22378037116063851,2,-4.3697462514874656,-8.8123349977384819,-7.3737702461644190,0.77659287596402149,-6810.1150242359490,-3.17175259494583686E-003,126.94950108953915,232.10417645840704,347.73435125324983
201205290300,441.99399517083253,13.886492464219803,0.41423807510775568,0,10.020837588603687,0,56.942451552064277,1,18.200439276668668,0,1.2789210499447305,1,-11.794942663784129,-30.876644995237221,18.881500277652297,0.60033419652295228,-1812.5886897980140,-1.19166582697848560E-002,112.32356817314324,205.36330638518299,307.67165505904183
201205290330,434.42550617149885,13.417732367821532,0.42926055384233064,0,15.673871518739896,0,90.607839858373609,0,14.892609144926691,0,2.0341859548968779,0,-9.9444511559091850,-16.219254056301700,-5.8791467446513499,0.61062760585642384,-1219.2958155558028,-1.77151432199034280E-002,121.13460874327367,221.47269868464005,331.80646023924777
201205290400,428.03092693073637,12.370017750148524,0.26672309193454463,0,-45.737207526459940,0,73.013378035864662,0,6.6538101020363198,0,1.6383604459959860,0,-11.881919313987387,-36.331726215810924,-4.9757896865986693,0.48082533197586735,203.95185582738011,0.10590734716472359,111.28917277556418,203.47210169491709,304.83828581040808
201205290430,420.90543436203325,11.895990725576700,0.12014268998222738,0,-30.336796142892094,0,-9.0077018102286015,2,9.4435739923261544,1,-0.20203342587822218,2,-10.810094779687832,-16.474265290496508,-5.5542710843118224,0.32239295014645658,92.684869830728815,0.23304774597459402,107.90458635253160,197.28399825513904,295.56737923753633
201205290500,406.93903809569383,12.291940246103504,5.43059012284449194E-002,0,-9.6195291553734954,0,3.9431180961760632,1,-4.8824159454857412,1,8.84059859430964823E-002,1,-9.1623168401945243,13.783879415877312,-10.900787947339033,0.21662688697561741,88.673379753472460,0.24359057994689937,94.982447985350319,173.65820801528011,260.17164027557538
201205290530,393.02226888155536,12.529617837331285,4.29140987959205633E-002,0,-16.672240329426316,0,4.4797822314731022,0,2.7211134214295964,0,0.10045461774721122,0,3.8916763143565376,8.2670570869270428,-10.854607573022392,0.19264483378164690,35.981683987795705,0.60030542226223504,208.92321014643130,1998.0000000000000,-9999.
201205290600,394.74850222230202,12.554370188185761,1.56172834943840433E-002,1,-8.4867249051766169,1,0.20451661737554633,2,-6.12180994134200462E-002,2,4.58626862188313538E-003,2,0.97837227066797827,0.86070469525741589,1.3460714321177067,0.11622932216359595,15.523262953745666,1.3914600341668539,416.75519783177134,3944.0000000000000,-9999.
201205290630,405.72883322360627,12.892211686562325,5.71221897115178137E-002,0,-16.795585034133239,0,0.81110420540905392,1,4.3582126262087737,0,1.81875353885585893E-002,1,-1.8435717774580540,11.751649668158812,8.5644301528702620,0.22227265621697290,54.860169811935187,0.39372827452132275,96.806858357351530,176.99381204114272,265.16898293295282
201205290700,397.68711765930595,12.675307563276194,0.11583621969567789,0,-27.177172900460413,0,33.253979163386873,0,-1.6747321297748832,2,0.74574493605262415,0,2.7074217288163638,-7.5414280358544623,-6.2701969713476453,0.31656521318481445,97.945935538618656,0.22052982475708180,91.269519834478984,166.86979117778975,250.00135484150707
201205290730,398.05648417373709,12.121987449574780,0.21339753337058109,0,-47.214839045732973,0,68.164862147654034,0,2.8589219668515353,0,1.5284212397570816,0,-3.5136273200144066,-19.255562150660275,0.28821711666279182,0.42946241884155162,140.77392410753350,0.15343750724388650,97.022285942914451,177.38768237465621,265.75907246512782
201205290800,391.17590297036412,11.313966944762774,0.11128534016511360,0,-32.996528348155849,0,64.570060424932436,0,3.3786026220536778,1,1.4474737897655479,0,-5.6416942791062965,-28.145789187952413,-5.3727383231102639,0.30997641219731747,75.723388385523577,0.28524872513667632,105.19319865904150,192.32671679868724,288.14046828081803
201205290830,396.48162733440893,11.601265985417896,0.12086648842888364,0,-21.098981420423581,0,61.534187116750552,0,-9.3684964006671372,1,1.3799568845886621,0,9.2735475917129744,9.9891815416859888,4.1370375633953449,0.32329516203461545,134.36052098530283,0.16076150822876567,97.456587033725114,178.18172328188669,266.94869043735684
201205290900,384.55966438001292,12.027257775881125,0.24803101106701728,0,-0.85274143176766237,0,110.69707944599524,0,-8.5647234577083058,0,2.4843764442976539,0,18.111195605496299,14.758730635232533,-9.2699370438844060,0.46381230015204028,9817.1503818948440,2.20023114241333501E-003,102.31456525871572,187.06365684985744,280.25544542238077
201205290930,384.91215043937501,11.885127111120454,0.35275853757695208,0,-16.083304726396033,0,114.55719938579394,0,-9.7249918367700108,0,2.5705517309309069,0,-4.2154087846293455,-4.9291017433414339,0.27430005924101403,0.55289013852494973,881.77217773393522,2.44961233132914256E-002,101.18316183395227,184.99509054677506,277.15635615823049
201205291000,386.01348506501290,11.844157599944824,0.23821295521723820,0,8.4527766537608251,0,98.613004446033258,0,-10.907995915304635,0,2.2133671040671885,0,6.2826047754167007,-1.4189941691441588,0.85616679908380144,0.45457109836200532,-932.40451258825328,-2.31659110486721644E-002,91.950153160316390,168.11420597428599,251.86571496872398
201205291030,386.42428676144300,11.295028104297534,0.49695653031662168,0,-7.5161050530433506,2,107.40289996961174,0,-10.085394683415167,0,2.4109473431942723,0,2.8560533712315075,-19.007185032882756,0.31918830938056980,0.65666703601625920,3160.6631329326456,6.83400890621275233E-003,102.69279824749862,187.75518738457720,281.29148417675310
201205291100,384.44357367845333,11.101861429460888,0.39106116680420322,0,17.430518611319506,0,81.151155369537108,0,-10.694883583336850,0,1.8221098276871561,0,5.8801721681481460,-6.6781689407533840,-1.5375406648421772,0.58277013300546332,-952.56501990560196,-2.26756174629848747E-002,102.49916456679730,187.40116325996021,280.76109152643494
201205291130,384.12811335364961,10.800257622524482,0.56619777115107273,0,42.133479050085683,0,114.15645168473567,0,-11.076781530024565,0,2.5638656328603133,0,6.2423193538455477,-10.411903819445188,-0.24458672082360297,0.70160488862330994,-687.50267701607504,-3.14180594812359590E-002,113.97588611149831,208.38427055627386,312.19760987908290
201205291200,381.71212768421969,10.441609362906011,0.93104572889711856,1,-72.436405624288824,2,136.79833386091352,0,-3.4821673217657492,2,3.0718730959372920,0,-3.9293245831233103,-12.388728987774760,-1.8740226739787338,0.89943190314700838,842.35024570537098,2.56425401549120434E-002,104.13881636366651,190.39896968475625,285.25235182263248
201205291230,378.07111597716954,10.500737925463179,0.54792953082145679,0,53.327354435796174,0,161.36038856363677,0,-8.3825371134388309,1,3.6163717459024980,0,-46.369895962735775,2.0620404223964788,-2.8457586536536046,0.68738849471611851,-510.88628769510734,-4.22794671147852380E-002,99.989456024772878,182.81261561465394,273.88661101091031
201205291300,378.33830521031666,10.525864032186918,1.0569108747030025,0,115.05230560757063,0,157.47538487682490,0,-15.226253326726813,0,3.5363672056483635,0,47.236006136247305,0.86802911181044407,0.20728731213888718,0.95823553297277220,-641.48003742607136,-3.36721312274496712E-002,110.36705690026196,201.78617978109020,302.31246756829950
201205291330,378.34047210929828,9.9390689636692162,1.3008144649358442,0,180.21145807989609,0,157.79661685895096,0,-17.656456040360489,0,3.5445203690228220,0,6.2470684074006453,-20.248028580887233,1.67955698715796780E-003,1.0634357156170016,-559.74273041739900,-3.85891568147618894E-002,106.42314701905552,194.57545467270279,291.50948738978491
201205291400,378.61211239035191,9.6871362646203991,1.8168328966040475,0,234.40252462197282,0,180.01675050682479,0,-20.608564081292702,0,4.0462673693091622,0,15.256643962094259,-8.6689550973102065,0.21009612571890240,1.2580746034292769,-712.60554620225025,-3.03112993087336045E-002,117.21570099099191,214.30768544194697,321.07196476533591
201205291430,371.06871512620205,10.756850677056439,1.4510669010018376,0,95.959447718863018,1,156.36705425075417,1,30.594539961114943,2,3.5085581888316315,1,-41.354077737702767,37.129081384225650,-5.8748497790494012,1.1206702397038462,-1231.0336342572823,-1.75462305812886243E-002,113.31171208443837,207.16994860736690,310.37833432118958
201205291500,375.36122396176847,10.533314799659401,0.96779502412169094,0,114.92813801380336,0,168.47415483452872,0,-18.668262544815786,0,3.7828776198357024,0,16.632231642655182,-7.7336696721205174,3.3345603669970463,0.91634409340694678,-561.92042172228878,-3.84396066862918023E-002,109.87495257730652,200.88645613010368,300.96451758800663
201205291530,376.92297836348348,9.8881596680123618,1.4011634301165616,0,209.70124511080348,0,120.26843449515189,0,-16.577211707231037,0,2.7035996050636073,0,27.163514815188719,-22.199484926352874,1.2080424545256740,1.1048086716321044,-539.66982473570101,-4.00244723902775726E-002,111.52883846798760,203.91028701811922,305.49476727238510
201205291600,376.68444553742006,10.754089312830864,1.2231669391098070,0,100.25221148033199,0,161.27999982735452,1,-15.647694665809997,0,3.6206844463016390,1,-31.602309179151383,29.991240527579251,-0.18546849065894855,1.0297472990075922,-914.35329360546859,-2.36232538900003307E-002,111.59503875562478,204.03132225741885,305.67610011636418
201205291630,373.43511882326231,11.665330461279456,1.1267379312283539,0,139.93064820033507,1,503.57054314119080,1,-30.793470197358957,1,11.307086411285452,1,4.3693636180638791,31.545954204446041,-2.5257718596975813,0.98863279924591185,-579.96290194771677,-3.72437615017438203E-002,126.24378576301309,230.81390376515813,345.80128764029456
201205291700,371.31528559899397,11.950154929428127,0.69122151222950823,0,-20.188397244544944,2,179.65263705114950,1,7.0690175329323948,2,4.0344142943119596,1,3.0755076880534320,9.8546432195332834,-1.6470705521557816,0.77455237069413874,1933.2697127307781,1.11727814581492682E-002,133.48836529367890,244.05930568734951,365.64531334797994
201205291730,353.54180532970378,12.448056929457797,0.46949679900822305,0,62.394219110661510,0,66.509318191485008,2,2.6159401415525552,2,1.4933697035183413,2,-3.3807107162821781,17.242949267353115,-13.820539504116349,0.63815848552969601,-349.94640857989549,-6.17237367505903481E-002,106.60963069458545,194.91640630748930,292.02029506821748
201205291800,372.83023730429062,12.143049709422087,0.39065843568759062,0,41.883082257942220,0,110.65336480752578,0,-4.0442581108957087,0,2.4875232849813669,0,28.063788752790302,-10.504113137276427,14.933057060702533,0.58335917468445186,-398.20562578416019,-5.42433320912142844E-002,104.79687899280594,191.60211804913411,287.05488731480756
201205291830,373.87549248139248,11.170857035347403,0.59481204983313796,0,-38.346965587125290,1,63.484781024927585,1,-3.8276890115324380,1,1.4267944089125373,1,-6.0073489000822953,-33.529281830923622,0.81018837484036077,0.71926874448226241,815.23726186451051,2.64953541875639180E-002,113.64907013371905,207.78674671628329,311.30241028367755
201205291900,374.80304211614441,10.595246600334049,0.32607282725539866,0,-1.3184191231026707,1,62.257285776702751,0,1.0695986827335169,1,1.3989303529346575,0,-4.6620822641463526,-19.874556796924523,0.71963431378747600,0.53223771187359925,9607.9558765440997,2.24813688546718609E-003,111.73428752522491,204.28591341936510,306.05752406954355
201205291930,375.11531380330689,11.814617910476104,0.35608546721516454,0,-24.618943289157077,1,151.46209929050022,0,0.25578927684253805,2,3.3987930305497462,0,-31.970808834449418,42.381424761305460,0.24355269345456304,0.55485972279613416,583.21890672593895,3.70358363744714494E-002,106.92051835233018,195.48480809837957,292.87186452733852
201205292000,369.69043091236307,11.960670370514565,0.54587018268982812,0,-59.560784643783350,0,224.99776694413737,0,-42.727862165481575,1,5.0468762764943431,0,-9.6584223675158576,5.0877017699282110,-4.2388454981650634,0.68637959185239150,456.45588450100962,4.73211119265398023E-002,118.47418853909032,216.60860205388798,324.51915713192608
201205292030,451.70673593654129,12.195577052699974,0.41177565174087744,0,-16.979327486019059,1,-33.557202079530860,2,-27.018050828901895,1,-0.75216577138585561,2,-17.411490912099634,8.2147047395314949,64.287214697409738,0.59523133936268124,1044.6224386167535,2.06773272347106039E-002,107.14091243069196,195.88775876471101,293.47555805272810
201205292100,440.77575062981532,11.783778659354857,0.46357541161668492,0,-52.800800523255170,0,160.43272140973860,0,-25.771437356592280,1,3.5947702189589648,0,-8.2445351450018602,-14.426698988162062,-8.5806426890672434,0.63104980756408746,400.31271000552567,5.39578171267703424E-002,107.20165772261780,195.99882053206863,293.64194881833362
201205292130,414.24406637153913,11.583069778718283,0.24834037462042516,0,-36.535734619480458,0,97.859213077705974,0,7.0361238098121381,1,2.1923705944326546,0,-3.6358491007247666,-7.0369994742321760,-20.840013660360228,0.46171524996493446,226.59921966579759,9.53224818331546153E-002,100.96479936456693,184.59585430960104,276.55822752457630
201205292200,405.52317098588219,11.416725146694180,0.33192890470616276,0,-39.465235209570743,0,108.58861463936736,0,7.7378457346662373,1,2.4322932631235425,0,-4.4500978553997808,-5.8394486229914877,-6.8573414080805266,0.53349286206522428,323.68882458593890,6.67307560822670148E-002,115.78114145974918,211.68485308953933,317.14248395879838
201205292230,396.90304461574755,11.253476788345388,0.35806136975534381,0,-38.188533486706945,0,112.60196813176769,0,7.7503006371355267,1,2.5218134631093325,0,-3.5734851454612828,-5.7361220782366775,-6.7834428897231485,0.55386054232055448,374.35602212672785,5.76990851577323383E-002,116.39872277698962,212.81398870491358,318.83413486607736
201205292300,395.29172044328499,11.081632500020884,0.31750037505032336,0,-44.291237920314821,0,8.8393997309553605,2,-16.821759527929633,1,0.19790093681926457,2,-7.8544517429070062,-6.0489327801288795,-1.2698477536608992,0.52115096640052672,268.93681273572776,8.03162638103596532E-002,103.50650908227134,189.24291031030180,283.52036421810010
201205292330,387.24898725475668,10.953936031161096,0.32848055922010061,0,-30.984431669070965,0,46.721418831514733,0,12.394830790740516,1,1.0454708786160321,0,-12.713023489903694,-4.5056937232507499,-6.3501262197169730,0.52957899502937034,403.35168168762459,5.35512828646840869E-002,111.44953383771389,203.76529286106432,305.27753960372212
201205300000,391.99720228972546,10.914860519559431,0.28340894165509878,0,-13.393083234204498,0,24.395024540220280,0,4.7911473705464331,1,0.54578280475459950,0,-4.2944322867721247,-1.3799852202437559,3.7516190343955653,0.49172766184345967,747.03365007897958,2.89143601465828987E-002,103.98262407054305,190.11340035794970,284.82451693353170
